Miscellaneous Local Product
Issued by NWS Hastings, NE

Home | Current Version | Previous Version | Graphics & Text | Print | Product List | Glossary On
Versions: 1 2 3 4 5 6 7 8 9 10 11 12 13 14 15 16 17 18 19 20 21 22 23 24 25 26 27 28 29 30 31 32 33 34 35 36 37 38 39 40 41 42 43 44 45 46 47 48 49 50
000
AXUS43 KGID 151902
MISGRI

GID CWA HOURLY WEATHER ROUNDUP
NATIONAL WEATHER SERVICE HASTINGS NE
200 PM CDT TUE AUG 15 2017

NOTE: "FAIR" INDICATES FEW OR NO CLOUDS BELOW 12,000 FEET WITH NO
SIGNIFICANT WEATHER AND/OR OBSTRUCTIONS TO VISIBILITY.

...SOUTH CENTRAL NEBRASKA...

CITY           SKY/WX    TMP DP  RH WIND       PRES   REMARKS
GRAND ISLAND   PTSUNNY   80  73  79 SE8       29.84S
HASTINGS       MOSUNNY   89  65  44 S17       29.83F HX  91
KEARNEY        PTSUNNY   86  72  62 S15       29.83S HX  92
ORD            CLOUDY    77  68  73 S9        29.83R
YORK           MOSUNNY   81  73  78 SE10      29.83F
AURORA         PTSUNNY   81  75  82 SE13      29.83F
LEXINGTON      CLOUDY    83  71  69 S8        29.83F
HOLDREGE       MOSUNNY   86  67  53 S14       29.82F
HEBRON         MOSUNNY   91  68  48 S13       29.82F HX  94

...NEBRASKA PANHANDLE...

CITY           SKY/WX    TMP DP  RH WIND       PRES   REMARKS
CHADRON        MOSUNNY   80  52  37 VRB3      29.84
ALLIANCE       SUNNY     78  61  55 NE6       29.88F
SCOTTSBLUFF    CLOUDY    80  59  48 VRB3      29.89F
SIDNEY         SUNNY     78  61  55 VRB7      29.91F

...WESTERN AND NORTH CENTRAL NEBRASKA...

CITY           SKY/WX    TMP DP  RH WIND       PRES   REMARKS
VALENTINE      CLOUDY    80  64  58 E8        29.85
AINSWORTH      CLOUDY    74  67  78 SE5       29.87R
ONEILL         LGT RAIN  66  66 100 SE8       29.86R
BROKEN BOW     CLOUDY    72  67  84 NW3       29.86S
IMPERIAL       SUNNY     84  64  50 S17       29.83F
NORTH PLATTE   LGT RAIN  74  69  85 SE15      29.82F
MCCOOK         SUNNY     89  65  44 S10       29.80F HX  91

...EASTERN NEBRASKA...

CITY           SKY/WX    TMP DP  RH WIND       PRES   REMARKS
NORFOLK        CLOUDY    78  69  73 S12       29.85R
SO SIOUX CITY  TSTM      71  68  90 E12       29.86S FOG
TEKAMAH        MOSUNNY   81  69  67 SE13G21   29.84F
COLUMBUS       PTSUNNY   78  71  79 SE9       29.85F
ALBION         PTSUNNY   81  73  76 SE14G20   29.84R
OMAHA EPPLEY   PTSUNNY   83  68  60 SE15      29.84F
OFFUTT AFB     CLOUDY    84  68  58 E13       29.84F
MILLARD        MOSUNNY   83  71  67 SE15      29.84F
LINCOLN        MOSUNNY   83  73  72 SE13G20   29.84F
NEBRASKA CITY  SUNNY     81  75  82 E10       29.86F
BEATRICE       MOSUNNY   91  70  50 S13G18    29.83F HX  96
FALLS CITY     SUNNY     87  69  54 S14       29.86F HX  91

...NORTHERN KANSAS...

CITY           SKY/WX    TMP DP  RH WIND       PRES   REMARKS
GOODLAND       SUNNY     83  62  49 S18G25    29.84F
HILL CITY      PTSUNNY   93  63  36 S16G28    29.80F HX  94
NORTON         PTCLDY    91  57  31 S15       29.80  HX  90
PHILLIPSBURG   PTSUNNY   91  63  38 S12G20    29.79F HX  92
SMITH CENTER   PTSUNNY   88  66  48 SE15      29.80F HX  90
HAYS           MOSUNNY   91  69  48 S18G29    29.81F HX  96
RUSSELL        MOSUNNY   91  68  46 S16G30    29.80F HX  95
CONCORDIA      MOSUNNY   90  68  48 SE15G23   29.82F HX  94
SALINA         MOSUNNY   95  65  37 S15       29.82F HX  97
TOPEKA         SUNNY     86  72  62 S8        29.87F HX  92



USA.gov is the U.S. government's official web portal to all federal, state and local government web resources and services.